Location: Treviso
(45.6669°N, 12.2430°E)
Time: 05:42:00
(UTC+01:00)

ISS - Pass Details

Date: 19 January 2021
Orbit: 418 x 421 km, 51.6° (Epoch: 23 January)

Event Time Altitude Azimuth Distance (km) Brightness Sun altitude
Rises 19:26:07 0° 239° (WSW) 2,362 1.0 -25.3°
Reaches altitude 10° 19:28:12 10° 238° (WSW) 1,501 -0.2 -25.7°
Enters shadow 19:29:47 26° 237° (WSW) 874 -1.6 -26.0°
